SCP
0 0 0 0 0 0 0 0 0 0 0 0 0 0 0 0 0 0 0 -0 0 0 0 0 0 0 0 0 0 0 0 0 0 0 0 0 0 0 0 0 0 0 0 0 0
0 0 0 0 0 0 0 0 0 0 0 0 0 0 0 0 0 0 -0 0 0 0 0 0 0 0 0 0 0 0 0 0 0 0 0 0 0 0 0 0 0 0 0 0 0
0 0 0 0 0 0 0 0 0 0 0 0 0 0 0 0 0 0 0 0 0 0 0 0 0 0 0 0 0 0 0 0 0 0 0 0 0 0 0 0 0 0 0 0 0
0 0 0 0 0 0 -0 -0 0 0 0 0 0 0 0 0 0 0 0 0 0 0 0 0 0 0 0 0 0 0 0 0 0 0 0 0 0 0 0 0 -0 0 0 0 0
0 0 0 0 0 -0 -0 0 0 0 0 0 0 0 0 0 0 0 0 0 0 0 0 0 0 0 0 0 0 0 0 0 0 0 0 0 0 0 0 0 0 0 0 0 0
0 0 0 0 0 -0 0 0 0 0 0 0 0 0 0 0 0 0 0 0 0 0 0 0 0 0 0 0 0 0 0 0 0 0 0 0 0 0 0 0 0 0 0 0 0
0 0 0 0 0 0 0 0 0 0 0 0 0 0 0 0 0 0 0 0 0 0 0 0 0 -0 0 0 0 0 0 0 0 0 0 0 0 0 0 0 0 0 0 0 0
0 0 0 0 0 0 0 -0 0 0 0 0 0 0 0 0 0 0 0 0 0 0 0 0 -0 0 0 0 0 0 0 0 0 0 0 0 0 0 0 0 0 0 0 0 0
0 0 0 0 0 0 0 0 0 0 0 0 0 0 0 0 0 0 0 0 0 0 0 0 0 0 0 0 0 0 0 0 0 0 0 0 0 0 0 0 0 0 0 0 0
0 0 0 0 0 0 0 0 0 0 0 0 0 0 0 0 0 0 0 0 0 0 0 0 0 0 0 0 0 0 0 0 0 0 0 0 0 0 0 0 0 0 0 0 0
0 0 0 0 0 0 0 0 0 0 0 0 0 0 0 0 0 0 0 0 0 0 0 0 0 0 0 0 0 0 0 0 0 0 0 0 0 0 0 0 0 0 0 0 0
0 0 0 0 0 0 0 0 0 0 0 0 0 0 0 0 0 0 0 0 0 0 0 0 0 0 0 0 0 0 0 0 0 0 0 0 0 0 0 0 0 0 0 0 0
0 0 0 0 0 0 0 0 0 0 0 0 0 0 0 0 0 0 0 0 0 0 0 0 0 0 0 0 0 0 0 0 0 0 0 0 0 0 0 0 -0 -0 -0 0 0
0 0 0 0 0 0 0 -0 0 0 0 0 0 0 0 0 0 0 0 0 0 0 0 0 0 0 0 0 0 0 0 0 0 0 0 0 0 0 0 0 -0 -0 -0 -0 0
0 0 0 0 0 0 0 0 0 0 0 0 0 0 0 0 0 0 0 0 0 0 0 0 0 0 0 0 0 0 0 0 0 0 0 0 0 0 0 0 -0 -0 -0 -0 -0
0 0 0 0 0 0 0 0 0 0 0 0 0 0 0 0 0 0 0 0 0 0 0 0 0 0 0 0 0 0 0 0 0 0 0 0 0 0 -0 -0 -0 -0 -0 -0 -0
0 0 0 0 0 0 0 0 0 0 0 0 0 0 0 0 0 0 0 0 0 0 0 0 0 0 0 0 0 0 0 0 0 0 0 0 0 0 0 -0 -0 -0 -0 -0 -0
0 0 0 0 0 -0 0 0 0 0 0 0 0 0 0 0 0 0 0 0 0 0 0 0 0 0 0 0 0 0 0 0 0 0 0 0 0 0 0 0 -0 -0 -0 -0 -0
0 0 0 0 0 0 0 0 0 0 0 0 0 0 0 0 0 0 0 0 0 0 0 0 0 0 0 0 0 0 0 0 0 0 0 0 0 0 0 -0 0 0 -0 -0 -0
0 0 0 0 0 0 0 0 0 0 0 0 0 0 0 0 0 0 0 0 0 0 0 0 0 0 0 0 0 0 0 0 0 0 0 0 0 0 -0 -0 -0 -0 -0 -0 -0
0 0 0 0 0 0 0 0 0 0 0 0 0 0 0 0 0 0 0 0 0 0 0 0 0 0 0 0 0 0 0 0 0 0 0 0 0 0 -0 0 0 0 -0 -0 -0
0 0 0 0 0 0 0 0 0 0 0 0 0 0 0 0 0 0 0 0 0 0 0 0 0 0 0 0 0 0 0 0 0 0 0 0 0 0 -0 -0 -0 -0 -0 0 -0
0 0 0 0 0 0 0 0 0 0 0 0 0 0 0 0 0 0 0 0 0 0 0 0 0 0 0 0 0 0 0 0 0 0 0 0 0 0 -0 -0 -0 -0 -0 -0 -0
0 0 0 0 0 0 0 0 0 0 0 0 0 0 0 0 0 0 0 0 0 0 0 0 0 0 0 0 0 0 0 0 0 0 0 0 0 0 0 -0 -0 -0 -0 -0 0
0 0 0 0 0 0 0 0 0 0 0 0 0 0 0 0 0 0 0 0 0 0 0 0 0 0 0 -0 0 0 0 0 0 0 0 0 0 0 0 0 0 -0 -0 -0 -0
0 0 0 0 0 0 0 0 0 0 0 0 0 0 0 0 0 0 0 0 0 0 0 0 0 0 -0 0 -0 0 0 0 0 0 0 0 0 0 0 0 0 0 0 0 0
0 0 0 0 0 0 0 0 0 0 0 0 0 0 0 0 0 0 0 0 0 0 0 0 0 0 0 -0 -0 0 0 0 0 0 0 0 0 0 0 0 0 0 0 0 0
Wind_Speed_500mb
20 22 25 27 30 34 37 38 37 39 28 24 17 8 8 12 16 18 36 36 35 34 30 25 17 17 8 9 8 6 5 5 9 5 8 13 12 20 26 16 36 18 9 8 26
20 23 25 28 31 33 37 37 38 33 27 19 14 7 7 8 6 25 42 32 36 38 32 29 30 26 8 6 4 6 6 10 6 9 12 21 10 33 16 26 33 38 34 41 49
21 23 26 29 31 34 38 36 37 27 21 15 10 6 5 0 4 23 37 31 39 38 24 19 16 16 8 10 10 5 8 2 7 20 28 15 24 13 12 8 16 44 70 68 62
23 24 26 30 32 34 38 35 34 25 14 12 7 6 4 2 5 29 28 38 50 28 16 13 17 11 9 5 4 5 13 10 13 18 28 13 26 13 29 35 44 47 49 49 48
24 26 27 29 33 35 38 33 31 21 12 12 3 5 2 4 13 31 30 48 31 13 14 16 19 5 1 7 13 4 6 22 37 51 37 37 14 20 29 35 18 14 19 20 12
25 27 27 28 32 36 35 32 27 18 9 9 5 2 3 4 24 29 45 26 18 17 20 19 3 3 7 4 1 8 24 33 30 30 19 11 12 13 30 37 13 23 28 23 24
25 27 28 29 31 35 32 30 22 16 3 6 3 1 4 8 22 38 29 22 19 19 21 15 10 3 6 7 9 22 10 13 9 6 16 28 10 4 19 26 31 37 34 33 31
24 26 27 29 30 36 30 31 18 14 2 3 5 3 3 13 20 40 22 12 13 12 9 9 9 5 7 15 12 9 4 17 12 34 8 26 25 10 34 35 31 40 44 43 37
26 27 26 29 30 34 30 31 11 8 4 1 7 2 1 14 16 44 32 9 4 11 5 6 5 6 8 5 7 8 18 33 23 21 15 5 19 17 32 27 34 44 52 51 48
27 28 29 30 32 29 29 25 7 7 7 8 6 2 7 17 14 38 23 13 7 12 4 7 6 6 6 12 7 26 24 15 27 12 11 24 7 9 22 34 31 37 45 51 56
31 30 31 33 33 26 25 13 4 4 4 4 5 4 13 22 6 34 32 4 8 11 8 8 8 5 11 5 11 12 19 21 22 19 19 9 5 12 14 30 35 43 47 50 58
33 33 31 33 33 23 25 12 8 6 3 2 2 5 12 20 6 35 37 8 10 7 8 8 3 6 12 9 11 15 22 12 16 5 13 6 8 9 14 19 36 41 47 49 67
35 33 29 31 29 26 21 25 7 9 2 7 5 3 5 10 5 21 30 7 7 7 7 4 4 12 9 13 22 16 7 9 16 16 3 6 10 2 11 12 44 42 44 50 55
34 33 26 28 15 29 17 24 6 5 9 5 3 1 4 3 1 18 25 7 5 3 5 7 7 7 12 9 13 11 9 22 23 3 3 6 8 4 16 18 34 49 54 58 66
32 33 24 22 22 16 20 14 11 4 8 1 2 3 7 3 7 16 21 7 5 4 10 4 8 8 7 18 11 17 34 22 9 5 6 6 1 5 13 25 39 44 55 56 61
31 30 27 20 21 16 15 4 8 11 10 2 1 6 4 9 8 15 12 15 3 2 3 9 12 4 1 21 1 24 10 2 3 4 5 6 6 6 6 14 29 39 51 56 60
32 31 26 22 15 13 8 4 9 8 7 5 3 6 3 7 6 10 8 12 9 13 10 10 2 6 12 11 6 17 11 7 8 7 9 7 3 9 5 6 14 31 50 56 61
35 30 29 22 12 6 3 8 5 3 10 3 3 1 2 7 6 10 5 7 4 5 4 7 12 10 9 8 8 10 7 4 6 7 11 8 6 8 12 11 28 37 37 46 56
38 27 28 17 10 6 4 4 12 10 2 6 3 7 6 2 4 5 4 3 3 6 5 6 11 2 8 2 3 10 9 2 4 6 6 6 3 5 8 17 27 36 41 49 59
36 20 23 17 8 9 5 11 5 2 6 6 8 5 5 6 5 6 3 4 2 2 11 6 7 3 6 6 6 6 8 2 1 7 9 10 8 7 20 33 27 28 40 51 57
29 6 10 12 9 7 6 10 6 3 2 4 8 6 8 4 3 2 3 3 5 3 6 8 6 4 6 4 6 7 6 3 4 3 3 9 9 7 7 17 20 24 35 42 51
18 3 11 14 2 1 4 7 6 5 4 3 5 4 10 6 4 2 5 6 8 9 6 7 6 6 14 9 8 5 7 4 5 6 4 2 11 6 8 12 22 30 35 35 37
20 8 14 17 5 6 6 5 3 7 7 7 8 4 1 8 4 4 4 2 9 7 9 6 0 7 15 6 5 3 7 5 5 2 6 0 11 8 5 17 27 29 36 36 33
17 4 6 14 10 6 7 3 4 5 5 6 7 9 5 3 3 4 5 5 10 4 7 8 4 12 11 14 4 11 4 1 6 4 4 9 21 16 15 19 28 31 33 31 30
17 6 9 4 9 4 2 3 6 6 8 14 4 11 12 5 3 7 6 3 5 2 4 5 3 5 11 3 6 9 10 2 7 9 7 6 7 20 12 14 31 40 37 32 30
16 12 13 1 7 12 9 12 13 5 14 8 9 6 11 10 12 14 10 9 7 2 6 2 3 3 9 7 3 8 9 8 7 6 11 3 10 6 6 11 15 17 17 18 18
14 16 11 12 8 5 8 9 11 10 15 5 13 9 6 15 12 8 7 12 10 12 7 3 4 5 8 6 1 10 12 8 6 6 9 1 10 3 8 5 3 6 11 16 19
Wind_Direction_500mb
2 358 357 358 355 353 351 350 349 345 349 351 359 30 113 116 116 25 15 6 353 348 344 347 354 5 81 114 162 146 40 276 273 260 301 359 11 326 322 284 315 303 308 320 318
358 354 353 354 352 352 349 350 349 348 349 358 10 39 126 133 169 7 6 1 355 343 341 349 357 9 52 53 88 114 138 234 248 340 327 324 324 316 322 315 305 309 287 281 300
353 351 352 351 349 350 350 350 348 348 352 6 19 88 116 238 9 0 358 356 341 341 341 338 346 16 54 4 19 18 215 243 290 322 336 301 307 285 282 290 286 296 301 301 298
347 348 352 348 347 350 350 348 346 346 352 1 27 117 74 121 17 349 353 343 331 337 347 356 359 41 24 359 316 337 256 271 279 294 314 281 289 260 246 272 287 295 299 297 298
346 346 350 347 345 350 349 346 345 343 351 2 30 158 186 72 8 351 344 333 342 17 23 25 58 59 160 269 329 214 291 310 305 305 301 299 277 274 263 314 334 5 18 27 330
346 344 345 347 347 347 347 344 342 339 350 17 69 160 158 78 6 5 343 358 36 65 54 49 144 302 256 267 145 272 289 294 297 300 313 309 294 339 340 348 347 353 358 2 1
343 342 341 348 349 345 344 342 337 329 339 35 50 165 164 46 10 0 7 30 62 65 69 56 66 79 302 327 323 286 316 316 296 300 340 341 307 95 354 350 354 350 337 334 346
336 339 341 344 350 346 342 339 329 324 208 12 1 236 238 348 5 3 20 58 58 49 56 43 47 95 23 294 337 342 31 340 325 308 308 1 291 45 359 2 4 353 347 340 341
335 334 341 344 351 348 340 338 325 327 199 1 354 276 321 347 346 8 1 34 63 15 13 10 18 52 6 354 6 29 319 318 320 333 4 12 293 22 13 10 0 359 353 351 346
331 333 338 346 347 351 344 340 314 341 249 266 325 123 13 347 358 7 17 43 53 15 68 25 23 51 9 31 338 308 318 291 300 297 333 307 318 349 13 15 1 357 355 352 355
329 332 340 342 346 350 352 344 348 283 32 135 99 7 343 352 49 16 21 48 27 56 22 11 43 340 298 251 228 260 290 284 294 307 312 306 327 346 359 14 1 1 358 353 350
322 330 340 341 340 356 349 20 332 259 307 200 298 312 336 347 328 10 17 59 45 33 351 10 340 274 278 276 291 299 300 284 296 305 332 32 295 309 9 18 8 3 354 353 355
324 328 332 340 333 349 357 8 10 145 309 248 263 281 345 338 26 359 14 46 65 35 47 161 259 300 321 327 338 318 217 289 286 327 179 144 274 278 346 347 3 1 354 356 355
323 324 333 341 334 340 355 357 111 103 66 246 239 79 344 315 62 24 17 34 55 22 354 232 273 303 332 315 13 316 196 316 291 92 250 153 283 140 348 345 0 355 353 350 350
322 323 326 342 334 339 346 354 140 76 16 195 243 295 355 94 323 14 16 22 110 294 77 243 310 338 9 325 1 251 312 290 235 155 60 194 108 236 1 343 345 347 348 347 351
312 319 317 333 329 334 348 81 125 44 258 328 290 342 74 20 16 350 16 34 37 359 208 267 294 133 277 319 223 326 335 218 84 75 12 233 134 288 350 333 328 338 341 344 347
299 306 309 311 312 329 356 135 32 138 358 279 286 35 116 345 35 37 38 13 39 24 2 329 284 30 43 323 340 16 351 353 357 360 231 262 127 249 171 356 324 326 331 341 347
278 292 298 296 305 332 337 54 111 229 225 77 21 18 94 16 43 8 78 30 65 95 43 44 334 25 355 125 243 357 90 51 296 316 296 316 251 286 173 96 355 339 341 346 353
265 276 284 281 275 254 192 75 215 204 156 164 45 57 319 20 129 45 62 152 213 132 152 58 284 62 66 351 151 333 39 255 255 215 295 268 236 135 237 353 354 348 348 349 353
248 262 264 256 220 186 103 239 210 222 112 67 165 140 225 283 41 43 342 157 191 225 154 224 340 138 124 355 14 93 331 113 223 341 300 305 292 257 337 334 340 345 349 346 355
221 220 227 200 170 195 196 222 210 189 151 127 196 187 223 215 158 173 241 184 175 189 180 153 113 307 69 351 209 350 360 356 277 222 247 308 289 168 260 299 311 328 345 349 353
187 170 193 169 162 266 216 188 145 159 190 229 137 122 182 152 147 213 227 219 164 148 209 187 154 285 227 250 244 121 219 197 116 308 281 260 278 154 232 294 335 339 350 355 356
165 164 188 169 189 239 291 265 122 153 213 198 193 123 76 164 57 196 246 220 161 158 180 211 174 11 358 32 280 173 233 190 189 337 247 213 278 165 210 1 350 347 354 359 2
161 157 182 204 255 176 176 205 311 216 239 191 136 111 98 49 4 233 234 195 205 218 175 140 144 148 196 223 156 315 243 269 148 123 244 235 293 310 347 348 340 351 359 5 19
175 191 171 192 247 169 90 100 177 245 221 196 213 203 177 147 359 234 228 216 193 201 127 130 213 175 259 234 159 265 260 232 195 202 181 249 267 297 330 335 339 347 356 8 25
176 159 153 299 128 146 162 213 207 179 161 236 208 198 175 176 191 203 162 183 189 137 179 35 256 92 305 344 164 291 253 227 191 253 266 271 285 254 338 337 354 356 352 10 30
206 169 163 167 163 157 217 206 184 170 212 215 188 129 201 236 208 112 127 118 144 152 162 103 115 52 278 304 55 340 236 200 254 219 175 33 227 321 320 310 258 74 56 53 66
Wind_Speed_850mb
20 22 25 27 30 34 37 38 37 39 28 24 17 8 8 12 16 18 36 36 35 34 30 25 17 17 8 9 8 6 5 5 9 5 8 13 12 20 26 16 36 18 9 8 26
20 23 25 28 31 33 37 37 38 33 27 19 14 7 7 8 6 25 42 32 36 38 32 29 30 26 8 6 4 6 6 10 6 9 12 21 10 33 16 26 33 38 34 41 49
21 23 26 29 31 34 38 36 37 27 21 15 10 6 5 0 4 23 37 31 39 38 24 19 16 16 8 10 10 5 8 2 7 20 28 15 24 13 12 8 16 44 70 68 62
23 24 26 30 32 34 38 35 34 25 14 12 7 6 4 2 5 29 28 38 50 28 16 13 17 11 9 5 4 5 13 10 13 18 28 13 26 13 29 35 44 47 49 49 48
24 26 27 29 33 35 38 33 31 21 12 12 3 5 2 4 13 31 30 48 31 13 14 16 19 5 1 7 13 4 6 22 37 51 37 37 14 20 29 35 18 14 19 20 12
25 27 27 28 32 36 35 32 27 18 9 9 5 2 3 4 24 29 45 26 18 17 20 19 3 3 7 4 1 8 24 33 30 30 19 11 12 13 30 37 13 23 28 23 24
25 27 28 29 31 35 32 30 22 16 3 6 3 1 4 8 22 38 29 22 19 19 21 15 10 3 6 7 9 22 10 13 9 6 16 28 10 4 19 26 31 37 34 33 31
24 26 27 29 30 36 30 31 18 14 2 3 5 3 3 13 20 40 22 12 13 12 9 9 9 5 7 15 12 9 4 17 12 34 8 26 25 10 34 35 31 40 44 43 37
26 27 26 29 30 34 30 31 11 8 4 1 7 2 1 14 16 44 32 9 4 11 5 6 5 6 8 5 7 8 18 33 23 21 15 5 19 17 32 27 34 44 52 51 48
27 28 29 30 32 29 29 25 7 7 7 8 6 2 7 17 14 38 23 13 7 12 4 7 6 6 6 12 7 26 24 15 27 12 11 24 7 9 22 34 31 37 45 51 56
31 30 31 33 33 26 25 13 4 4 4 4 5 4 13 22 6 34 32 4 8 11 8 8 8 5 11 5 11 12 19 21 22 19 19 9 5 12 14 30 35 43 47 50 58
33 33 31 33 33 23 25 12 8 6 3 2 2 5 12 20 6 35 37 8 10 7 8 8 3 6 12 9 11 15 22 12 16 5 13 6 8 9 14 19 36 41 47 49 67
35 33 29 31 29 26 21 25 7 9 2 7 5 3 5 10 5 21 30 7 7 7 7 4 4 12 9 13 22 16 7 9 16 16 3 6 10 2 11 12 44 42 44 50 55
34 33 26 28 15 29 17 24 6 5 9 5 3 1 4 3 1 18 25 7 5 3 5 7 7 7 12 9 13 11 9 22 23 3 3 6 8 4 16 18 34 49 54 58 66
32 33 24 22 22 16 20 14 11 4 8 1 2 3 7 3 7 16 21 7 5 4 10 4 8 8 7 18 11 17 34 22 9 5 6 6 1 5 13 25 39 44 55 56 61
31 30 27 20 21 16 15 4 8 11 10 2 1 6 4 9 8 15 12 15 3 2 3 9 12 4 1 21 1 24 10 2 3 4 5 6 6 6 6 14 29 39 51 56 60
32 31 26 22 15 13 8 4 9 8 7 5 3 6 3 7 6 10 8 12 9 13 10 10 2 6 12 11 6 17 11 7 8 7 9 7 3 9 5 6 14 31 50 56 61
35 30 29 22 12 6 3 8 5 3 10 3 3 1 2 7 6 10 5 7 4 5 4 7 12 10 9 8 8 10 7 4 6 7 11 8 6 8 12 11 28 37 37 46 56
38 27 28 17 10 6 4 4 12 10 2 6 3 7 6 2 4 5 4 3 3 6 5 6 11 2 8 2 3 10 9 2 4 6 6 6 3 5 8 17 27 36 41 49 59
36 20 23 17 8 9 5 11 5 2 6 6 8 5 5 6 5 6 3 4 2 2 11 6 7 3 6 6 6 6 8 2 1 7 9 10 8 7 20 33 27 28 40 51 57
29 6 10 12 9 7 6 10 6 3 2 4 8 6 8 4 3 2 3 3 5 3 6 8 6 4 6 4 6 7 6 3 4 3 3 9 9 7 7 17 20 24 35 42 51
18 3 11 14 2 1 4 7 6 5 4 3 5 4 10 6 4 2 5 6 8 9 6 7 6 6 14 9 8 5 7 4 5 6 4 2 11 6 8 12 22 30 35 35 37
20 8 14 17 5 6 6 5 3 7 7 7 8 4 1 8 4 4 4 2 9 7 9 6 0 7 15 6 5 3 7 5 5 2 6 0 11 8 5 17 27 29 36 36 33
17 4 6 14 10 6 7 3 4 5 5 6 7 9 5 3 3 4 5 5 10 4 7 8 4 12 11 14 4 11 4 1 6 4 4 9 21 16 15 19 28 31 33 31 30
17 6 9 4 9 4 2 3 6 6 8 14 4 11 12 5 3 7 6 3 5 2 4 5 3 5 11 3 6 9 10 2 7 9 7 6 7 20 12 14 31 40 37 32 30
16 12 13 1 7 12 9 12 13 5 14 8 9 6 11 10 12 14 10 9 7 2 6 2 3 3 9 7 3 8 9 8 7 6 11 3 10 6 6 11 15 17 17 18 18
14 16 11 12 8 5 8 9 11 10 15 5 13 9 6 15 12 8 7 12 10 12 7 3 4 5 8 6 1 10 12 8 6 6 9 1 10 3 8 5 3 6 11 16 19
Wind_Direction_850mb
2 358 357 358 355 353 351 350 349 345 349 351 359 30 113 116 116 25 15 6 353 348 344 347 354 5 81 114 162 146 40 276 273 260 301 359 11 326 322 284 315 303 308 320 318
358 354 353 354 352 352 349 350 349 348 349 358 10 39 126 133 169 7 6 1 355 343 341 349 357 9 52 53 88 114 138 234 248 340 327 324 324 316 322 315 305 309 287 281 300
353 351 352 351 349 350 350 350 348 348 352 6 19 88 116 238 9 0 358 356 341 341 341 338 346 16 54 4 19 18 215 243 290 322 336 301 307 285 282 290 286 296 301 301 298
347 348 352 348 347 350 350 348 346 346 352 1 27 117 74 121 17 349 353 343 331 337 347 356 359 41 24 359 316 337 256 271 279 294 314 281 289 260 246 272 287 295 299 297 298
346 346 350 347 345 350 349 346 345 343 351 2 30 158 186 72 8 351 344 333 342 17 23 25 58 59 160 269 329 214 291 310 305 305 301 299 277 274 263 314 334 5 18 27 330
346 344 345 347 347 347 347 344 342 339 350 17 69 160 158 78 6 5 343 358 36 65 54 49 144 302 256 267 145 272 289 294 297 300 313 309 294 339 340 348 347 353 358 2 1
343 342 341 348 349 345 344 342 337 329 339 35 50 165 164 46 10 0 7 30 62 65 69 56 66 79 302 327 323 286 316 316 296 300 340 341 307 95 354 350 354 350 337 334 346
336 339 341 344 350 346 342 339 329 324 208 12 1 236 238 348 5 3 20 58 58 49 56 43 47 95 23 294 337 342 31 340 325 308 308 1 291 45 359 2 4 353 347 340 341
335 334 341 344 351 348 340 338 325 327 199 1 354 276 321 347 346 8 1 34 63 15 13 10 18 52 6 354 6 29 319 318 320 333 4 12 293 22 13 10 0 359 353 351 346
331 333 338 346 347 351 344 340 314 341 249 266 325 123 13 347 358 7 17 43 53 15 68 25 23 51 9 31 338 308 318 291 300 297 333 307 318 349 13 15 1 357 355 352 355
329 332 340 342 346 350 352 344 348 283 32 135 99 7 343 352 49 16 21 48 27 56 22 11 43 340 298 251 228 260 290 284 294 307 312 306 327 346 359 14 1 1 358 353 350
322 330 340 341 340 356 349 20 332 259 307 200 298 312 336 347 328 10 17 59 45 33 351 10 340 274 278 276 291 299 300 284 296 305 332 32 295 309 9 18 8 3 354 353 355
324 328 332 340 333 349 357 8 10 145 309 248 263 281 345 338 26 359 14 46 65 35 47 161 259 300 321 327 338 318 217 289 286 327 179 144 274 278 346 347 3 1 354 356 355
323 324 333 341 334 340 355 357 111 103 66 246 239 79 344 315 62 24 17 34 55 22 354 232 273 303 332 315 13 316 196 316 291 92 250 153 283 140 348 345 0 355 353 350 350
322 323 326 342 334 339 346 354 140 76 16 195 243 295 355 94 323 14 16 22 110 294 77 243 310 338 9 325 1 251 312 290 235 155 60 194 108 236 1 343 345 347 348 347 351
312 319 317 333 329 334 348 81 125 44 258 328 290 342 74 20 16 350 16 34 37 359 208 267 294 133 277 319 223 326 335 218 84 75 12 233 134 288 350 333 328 338 341 344 347
299 306 309 311 312 329 356 135 32 138 358 279 286 35 116 345 35 37 38 13 39 24 2 329 284 30 43 323 340 16 351 353 357 360 231 262 127 249 171 356 324 326 331 341 347
278 292 298 296 305 332 337 54 111 229 225 77 21 18 94 16 43 8 78 30 65 95 43 44 334 25 355 125 243 357 90 51 296 316 296 316 251 286 173 96 355 339 341 346 353
265 276 284 281 275 254 192 75 215 204 156 164 45 57 319 20 129 45 62 152 213 132 152 58 284 62 66 351 151 333 39 255 255 215 295 268 236 135 237 353 354 348 348 349 353
248 262 264 256 220 186 103 239 210 222 112 67 165 140 225 283 41 43 342 157 191 225 154 224 340 138 124 355 14 93 331 113 223 341 300 305 292 257 337 334 340 345 349 346 355
221 220 227 200 170 195 196 222 210 189 151 127 196 187 223 215 158 173 241 184 175 189 180 153 113 307 69 351 209 350 360 356 277 222 247 308 289 168 260 299 311 328 345 349 353
187 170 193 169 162 266 216 188 145 159 190 229 137 122 182 152 147 213 227 219 164 148 209 187 154 285 227 250 244 121 219 197 116 308 281 260 278 154 232 294 335 339 350 355 356
165 164 188 169 189 239 291 265 122 153 213 198 193 123 76 164 57 196 246 220 161 158 180 211 174 11 358 32 280 173 233 190 189 337 247 213 278 165 210 1 350 347 354 359 2
161 157 182 204 255 176 176 205 311 216 239 191 136 111 98 49 4 233 234 195 205 218 175 140 144 148 196 223 156 315 243 269 148 123 244 235 293 310 347 348 340 351 359 5 19
175 191 171 192 247 169 90 100 177 245 221 196 213 203 177 147 359 234 228 216 193 201 127 130 213 175 259 234 159 265 260 232 195 202 181 249 267 297 330 335 339 347 356 8 25
176 159 153 299 128 146 162 213 207 179 161 236 208 198 175 176 191 203 162 183 189 137 179 35 256 92 305 344 164 291 253 227 191 253 266 271 285 254 338 337 354 356 352 10 30
206 169 163 167 163 157 217 206 184 170 212 215 188 129 201 236 208 112 127 118 144 152 162 103 115 52 278 304 55 340 236 200 254 219 175 33 227 321 320 310 258 74 56 53 66